WB6TTB Weather Reports


time (UTC)temp
C
wind
direction
speed
KPH
gust
KPH
rain 1hr
cm
rain 24hr
cm
rain mn
cm
humidity
%
barometer
mb
20260503131204 11 0 0.0 0.0 0.00 0.00 0.00 90 1010.1
20260503110603 11 0 0.0 0.0 0.00 0.00 0.00 92 1010.1
20260503081204 11 0 0.0 0.0 0.00 0.00 0.00 92 1010.9
20260503072403 11 0 0.0 0.0 0.00 0.00 0.00 92 1010.9
20260503071803 11 0 0.0 0.0 0.00 0.00 0.00 92 1010.9
20260503053004 11 0 0.0 0.0 0.00 0.00 0.00 91 1011.4
20260503052403 11 0 0.0 0.0 0.00 0.00 0.00 91 1011.4
20260503051203 11 0 0.0 0.0 0.00 0.00 0.00 91 1011.4
20260503050604 11 0 0.0 0.0 0.00 0.00 0.00 91 1011.5
20260503050003 11 0 0.0 0.0 0.00 0.00 0.00 91 1011.4
20260503045403 11 0 0.0 0.0 0.00 0.00 0.00 91 1011.4
20260503044803 11 0 0.0 0.0 0.00 0.00 0.00 91 1011.4
20260503044203 11 0 0.0 0.0 0.00 0.00 0.00 92 1011.3
20260503043603 11 0 0.0 0.0 0.00 0.00 0.00 91 1011.3
20260503043003 11 0 0.0 0.0 0.00 0.00 0.00 91 1011.3
20260503041203 11 0 0.0 0.0 0.00 0.00 0.00 91 1011.2
20260503040603 11 0 0.0 0.0 0.00 0.00 0.00 91 1011.2
20260503034804 11 0 0.0 0.0 0.00 0.00 0.00 91 1011.1
20260503034204 11 0 0.0 0.0 0.00 0.00 0.00 91 1011.0
20260503033004 11 0 0.0 0.0 0.00 0.00 0.00 91 1010.8
20260503032404 11 0 0.0 0.0 0.00 0.00 0.00 91 1010.7
20260503031804 11 0 0.0 0.0 0.00 0.00 0.00 91 1010.6
20260503031204 11 0 0.0 0.0 0.00 0.00 0.00 91 1010.5
20260503030004 11 0 0.0 0.0 0.00 0.00 0.00 91 1010.4
20260503025403 11 0 0.0 0.0 0.00 0.00 0.00 91 1010.4
20260503024803 11 0 0.0 0.0 0.00 0.00 0.00 91 1010.4
20260503024203 11 284 0.0 1.6 0.00 0.00 0.00 91 1010.5
20260503023603 11 284 0.0 1.6 0.00 0.00 0.00 91 1010.5
20260503023003 11 0 0.0 0.0 0.00 0.00 0.00 90 1010.5
20260503022403 11 0 0.0 0.0 0.00 0.00 0.00 90 1010.4
20260503021803 11 0 0.0 0.0 0.00 0.00 0.00 90 1010.5
20260503020603 11 290 0.0 1.6 0.00 0.00 0.00 90 1010.5
20260503015403 11 0 0.0 1.6 0.00 0.00 0.00 89 1010.5
20260503014803 12 289 0.0 1.6 0.00 0.00 0.00 88 1010.6
20260503014204 12 287 0.0 1.6 0.00 0.00 0.00 88 1010.6
20260503013604 12 292 0.0 1.6 0.00 0.00 0.00 89 1010.6
20260503013004 12 292 0.0 1.6 0.00 0.00 0.00 88 1010.6
20260503012403 12 289 0.0 1.6 0.00 0.00 0.00 88 1010.7
20260503011804 12 286 0.0 1.6 0.00 0.00 0.00 88 1010.8
20260503011204 12 289 0.0 1.6 0.00 0.00 0.00 87 1010.7
20260503010603 12 282 0.0 3.2 0.00 0.00 0.00 87 1010.7
20260503005403 12 286 0.0 4.8 0.00 0.00 0.00 87 1010.8
20260503004803 12 287 0.0 4.8 0.00 0.00 0.00 87 1010.8
20260503004204 12 285 0.0 3.2 0.00 0.00 0.00 86 1010.8
20260503003603 12 292 0.0 1.6 0.00 0.00 0.00 85 1010.8
20260503003003 12 296 0.0 1.6 0.00 0.00 0.00 86 1010.9
20260503002403 12 301 0.0 1.6 0.00 0.00 0.00 85 1010.8
20260503001803 13 302 0.0 9.7 0.00 0.00 0.00 84 1010.8
20260503001203 13 301 0.0 9.7 0.00 0.00 0.00 84 1010.9
20260503000603 13 300 0.0 6.4 0.00 0.00 0.00 83 1010.9
20260503000003 13 290 0.0 3.2 0.00 0.00 0.00 83 1011.0
20260502234803 13 308 0.0 4.8 0.00 0.00 0.00 84 1011.1
20260502234203 13 301 0.0 4.8 0.00 0.00 0.00 84 1011.1
20260502233003 13 296 0.0 3.2 0.00 0.00 0.00 83 1011.1
20260502232403 13 290 0.0 1.6 0.00 0.00 0.00 82 1011.1
20260502231804 13 302 0.0 3.2 0.00 0.00 0.00 81 1011.2
20260502231204 13 303 0.0 4.8 0.00 0.00 0.00 82 1011.3
20260502230004 13 295 0.0 9.7 0.00 0.00 0.00 82 1011.5
20260502225404 13 298 0.0 8.0 0.00 0.00 0.00 83 1011.5
20260502223604 14 305 0.0 4.8 0.00 0.00 0.00 84 1011.8
20260502223004 14 299 0.0 4.8 0.00 0.00 0.00 83 1011.9
20260502222403 13 299 0.0 6.4 0.00 0.00 0.00 83 1011.9
20260502221803 13 298 0.0 11.3 0.00 0.00 0.00 83 1012.0
20260502221203 14 297 0.0 11.3 0.00 0.00 0.00 83 1012.0
20260502220603 13 298 0.0 4.8 0.00 0.00 0.00 84 1012.1
20260502215403 13 298 0.0 3.2 0.00 0.00 0.00 84 1012.1
20260502214803 13 292 0.0 3.2 0.00 0.00 0.00 85 1012.1
20260502214203 13 293 0.0 3.2 0.00 0.00 0.00 86 1012.2
20260502213603 13 297 0.0 3.2 0.00 0.00 0.00 86 1012.2
20260502213003 13 295 0.0 4.8 0.00 0.00 0.00 86 1012.2
20260502212403 13 290 0.0 4.8 0.00 0.00 0.00 86 1012.3
20260502210603 13 295 0.0 1.6 0.00 0.00 0.00 86 1012.4
20260502210004 13 296 0.0 3.2 0.00 0.00 0.00 86 1012.5
20260502205404 12 296 0.0 6.4 0.00 0.00 0.00 87 1012.6
20260502204804 12 294 0.0 3.2 0.00 0.00 0.00 87 1012.6
20260502204204 12 262 0.0 3.2 0.00 0.00 0.00 88 1012.6
20260502203604 12 233 0.0 6.4 0.00 0.00 0.00 89 1012.7
20260502203003 12 242 0.0 6.4 0.00 0.00 0.00 89 1012.7
20260502202404 12 283 0.0 1.6 0.00 0.00 0.00 89 1012.8
20260502201804 12 289 0.0 1.6 0.00 0.00 0.00 89 1012.8
20260502200603 12 286 0.0 1.6 0.00 0.00 0.00 91 1012.9
20260502200004 12 287 0.0 1.6 0.00 0.00 0.00 91 1012.8
20260502194803 12 289 0.0 1.6 0.00 0.00 0.00 92 1012.9